STARLINK-11314, 61878

Orbit data source: Space-Track

STARLINK-11314, 61878 is a payload satellite owned by SpaceX/Seattle (US) in LEO that was launched on Sat, 09 Nov 2024 UTC via an FALCON 9 launch vehicle from the Air Force Western Test Range (AFWTR). Payload-class satellites include a variety of spacecraft equipped with specific instruments for various scientific and technological missions. These include communications satellites like Starlink; space stations such as the ISS; scientific satellites like the Hubble; Earth observation satellites from companies like Planet Labs, Umbra, and HawkEye 360; GPS; miniature CubeSats for education and research; and military/defense satellites.

Loading next visibility...
Identifier
61878, 2024-204E
Orbit
LEO
Country
Flag of USUS
Related business
Manufacturer
SpaceX/Seattle
Mission
Operational Commercial Communications
Bus & Motor
STARLINK V2MD, Unknown motor
Mass
960 kg wet, ~910 kg dry
Launch date (UTC)
2024-11-09 (2 years ago)
Launch vehicle
FALCON 9
Launch site
Air Force Western Test Range (AFWTR)
Object type
Payload
Rocket body
Debris
Shape & HBR
Box + 2 Pan, 18.1 m
Radar Cross Section
36.964 m², Large (>1 m²)

Expand to show TLE details & history
Last TLE update: 11 hours ago

TLE from 11 hours ago
0 STARLINK-11314
1 61878U 24204E   26171.39686859 -.00000785  00000-0 -16207-5 0  9996
2 61878  53.1594 210.1237 0001227  77.4819 282.6336 15.69696970 93047
Epoch: 2026-06-20T09:31Z
TLE epoch observation values (Epoch: 2026-06-20T09:31:29.446Z)
Latitude
-0.00001°
Longitude
158.63891°
Altitude
360.498 km
Speed
7.694 km/s
True Right ascension
14h 00m 29s
True Declination
0° 00' 00"
Sunlit
Object was in full shadow at epoch
Visualization orbit readout
Latitude
Unknown
Longitude
Unknown
Altitude
Unknown
Speed
Unknown
Apparent Right ascension
Unknown
Apparent Declination
Unknown
Sunlit
N/A
Visualization observer readout
Local Sidereal Time
07:14:20
Azimuth
Unknown
Elevation
Unknown
Doppler factor
Unknown
Orbital elements
Apogee altitude
360.852 km
Perigee altitude
359.198 km
Semi-major axis
6,738.162 km
Eccentricity
0.00012
Inclination
53.1594°
RAAN
210.1237°
Arg. of periapsis
77.4819°
True anomaly
282.61988°
Mean anomaly
282.6336°
Eccentric anomaly
282.62674°
Mean motion
3.92402 °/min
Orbital period
91.74 mins
BSTAR
-0.0000016207
Loading maneuver chart data...
Computing Atmospheric mass density...
Loading historical data...
Loading historical data...
Loading historical data...
Loading historical data...
Loading historical data...
Loading historical data...
Loading historical data...

Documentation

Showing up to 5 results
|